Total_Precipitation_Accumulation
0.00 0.00 0.00 0.00 0.09 0.16 0.07 0.16 0.17 0.05 0.00 0.00 0.01 0.00 0.01 0.00 0.00 0.00 0.00 0.00 0.00 0.00 0.06 0.20 0.23 0.17 0.07 0.01 0.02 0.03 0.03 0.07 0.02 0.02 0.01 0.01 0.04 0.06 0.08 0.10 0.13 0.12 0.03 0.01 0.01 0.01 0.01 0.01 0.03
0.00 0.00 0.00 0.01 0.22 0.35 0.06 0.04 0.10 0.04 0.00 0.00 0.00 0.00 0.01 0.00 0.00 0.00 0.00 0.00 0.00 0.00 0.00 0.02 0.13 0.04 0.00 0.00 0.01 0.07 0.03 0.04 0.04 0.03 0.03 0.03 0.05 0.11 0.16 0.17 0.13 0.04 0.04 0.05 0.04 0.03 0.04 0.04 0.01
0.00 0.00 0.00 0.16 0.77 0.68 0.16 0.07 0.10 0.01 0.00 0.00 0.01 0.01 0.00 0.00 0.00 0.00 0.00 0.00 0.00 0.00 0.00 0.00 0.00 0.00 0.01 0.03 0.03 0.02 0.05 0.04 0.04 0.10 0.07 0.06 0.09 0.14 0.13 0.09 0.10 0.05 0.05 0.06 0.08 0.06 0.07 0.15 0.01
0.00 0.00 0.06 0.29 0.86 0.15 0.12 0.04 0.05 0.03 0.00 0.00 0.00 0.01 0.00 0.00 0.00 0.00 0.00 0.00 0.00 0.00 0.00 0.00 0.00 0.04 0.13 0.12 0.06 0.06 0.04 0.07 0.06 0.06 0.08 0.15 0.16 0.14 0.08 0.08 0.12 0.04 0.03 0.02 0.05 0.02 0.05 0.05 0.01
0.00 0.19 0.55 0.60 0.31 0.11 0.14 0.10 0.01 0.00 0.00 0.00 0.00 0.00 0.01 0.00 0.00 0.00 0.00 0.00 0.00 0.00 0.00 0.01 0.09 0.12 0.11 0.18 0.25 0.08 0.06 0.08 0.05 0.10 0.16 0.15 0.10 0.13 0.19 0.15 0.03 0.02 0.01 0.01 0.05 0.05 0.05 0.08 0.06
0.08 0.75 0.94 0.31 0.12 0.22 0.29 0.09 0.00 0.00 0.00 0.00 0.00 0.00 0.01 0.01 0.00 0.00 0.00 0.00 0.00 0.00 0.00 0.02 0.08 0.07 0.08 0.14 0.22 0.12 0.16 0.12 0.13 0.09 0.11 0.16 0.16 0.14 0.07 0.07 0.01 0.01 0.00 0.00 0.02 0.05 0.05 0.06 0.04
0.12 1.57 0.83 0.08 0.18 0.45 0.27 0.01 0.00 0.00 0.00 0.00 0.00 0.00 0.02 0.01 0.00 0.00 0.00 0.00 0.00 0.00 0.00 0.00 0.03 0.05 0.06 0.14 0.17 0.11 0.07 0.05 0.11 0.06 0.12 0.16 0.15 0.17 0.13 0.08 0.01 0.00 0.00 0.02 0.06 0.04 0.07 0.15 0.08
0.08 0.55 0.86 0.11 0.76 0.63 0.23 0.04 0.00 0.00 0.00 0.00 0.00 0.00 0.01 0.00 0.00 0.03 0.00 0.00 0.00 0.00 0.00 0.02 0.00 0.01 0.03 0.07 0.12 0.06 0.03 0.04 0.10 0.16 0.13 0.22 0.32 0.13 0.05 0.03 0.00 0.00 0.00 0.01 0.03 0.04 0.05 0.06 0.04
0.18 0.41 0.44 0.21 0.89 0.59 0.17 0.01 0.00 0.00 0.00 0.00 0.00 0.00 0.00 0.00 0.00 0.00 0.01 0.00 0.01 0.01 0.08 0.02 0.00 0.00 0.02 0.02 0.05 0.04 0.01 0.03 0.10 0.11 0.16 0.15 0.24 0.09 0.01 0.00 0.01 0.00 0.00 0.00 0.00 0.00 0.00 0.03 0.02
0.20 0.32 0.64 0.29 0.41 0.11 0.02 0.02 0.06 0.03 0.01 0.00 0.00 0.00 0.00 0.00 0.00 0.00 0.01 0.00 0.00 0.00 0.02 0.01 0.00 0.00 0.00 0.00 0.03 0.09 0.00 0.00 0.00 0.01 0.01 0.01 0.02 0.03 0.05 0.09 0.04 0.01 0.02 0.05 0.03 0.02 0.03 0.01 0.00
0.17 0.93 0.22 0.45 0.16 0.08 0.07 0.10 0.04 0.05 0.01 0.00 0.00 0.00 0.00 0.00 0.00 0.00 0.00 0.00 0.00 0.02 0.03 0.00 0.00 0.00 0.00 0.01 0.01 0.01 0.00 0.00 0.00 0.00 0.00 0.00 0.00 0.04 0.12 0.16 0.05 0.01 0.00 0.01 0.00 0.01 0.04 0.02 0.07
0.18 0.62 0.41 0.38 0.27 0.14 0.08 0.03 0.04 0.03 0.00 0.00 0.00 0.00 0.00 0.00 0.00 0.00 0.00 0.00 0.00 0.00 0.01 0.00 0.00 0.00 0.00 0.01 0.00 0.00 0.00 0.00 0.00 0.00 0.00 0.00 0.00 0.00 0.01 0.00 0.00 0.00 0.00 0.02 0.02 0.04 0.03 0.01 0.00
0.08 0.41 0.66 0.57 0.41 0.34 0.18 0.15 0.08 0.13 0.01 0.00 0.00 0.00 0.00 0.00 0.00 0.00 0.00 0.00 0.00 0.00 0.00 0.00 0.00 0.00 0.01 0.00 0.00 0.00 0.00 0.00 0.00 0.00 0.00 0.00 0.00 0.00 0.00 0.00 0.00 0.00 0.01 0.01 0.02 0.02 0.00 0.00 0.00
0.13 0.44 0.59 0.64 0.55 0.45 0.28 0.20 0.19 0.14 0.00 0.00 0.00 0.00 0.00 0.00 0.00 0.00 0.00 0.00 0.00 0.01 0.00 0.00 0.00 0.00 0.00 0.00 0.00 0.00 0.00 0.00 0.00 0.00 0.00 0.00 0.01 0.01 0.00 0.00 0.00 0.01 0.00 0.00 0.01 0.00 0.00 0.00 0.00
0.11 0.41 0.53 0.30 0.49 0.32 0.41 0.37 0.36 0.20 0.00 0.00 0.00 0.00 0.00 0.00 0.00 0.00 0.00 0.00 0.00 0.00 0.00 0.00 0.00 0.00 0.00 0.00 0.00 0.00 0.00 0.00 0.00 0.03 0.02 0.01 0.00 0.00 0.04 0.01 0.02 0.00 0.03 0.00 0.01 0.00 0.00 0.00 0.00
0.09 0.26 0.42 0.23 0.56 0.51 0.86 1.25 0.70 0.35 0.02 0.01 0.00 0.00 0.00 0.00 0.00 0.00 0.00 0.00 0.00 0.00 0.00 0.00 0.00 0.00 0.00 0.00 0.00 0.00 0.00 0.00 0.00 0.02 0.04 0.00 0.03 0.01 0.00 0.00 0.02 0.00 0.01 0.00 0.00 0.00 0.00 0.00 0.00
0.04 0.29 0.38 0.59 0.48 0.94 1.54 1.46 0.93 0.27 0.08 0.04 0.01 0.00 0.00 0.00 0.00 0.00 0.00 0.00 0.00 0.00 0.00 0.00 0.00 0.00 0.00 0.00 0.00 0.00 0.00 0.00 0.00 0.00 0.04 0.04 0.04 0.01 0.00 0.00 0.01 0.04 0.01 0.01 0.00 0.00 0.00 0.00 0.00
0.02 0.12 0.22 0.47 0.65 0.79 0.72 0.22 0.28 0.11 0.12 0.08 0.02 0.00 0.00 0.00 0.00 0.00 0.00 0.00 0.00 0.00 0.00 0.00 0.00 0.00 0.00 0.00 0.00 0.01 0.00 0.00 0.00 0.01 0.02 0.00 0.04 0.05 0.02 0.02 0.03 0.06 0.01 0.00 0.02 0.00 0.00 0.00 0.00
0.00 0.03 0.13 0.26 0.73 0.85 0.52 0.21 0.33 0.14 0.26 0.25 0.05 0.01 0.00 0.00 0.00 0.00 0.00 0.00 0.00 0.00 0.00 0.00 0.00 0.00 0.00 0.00 0.01 0.00 0.02 0.00 0.00 0.02 0.03 0.04 0.06 0.06 0.06 0.04 0.04 0.02 0.02 0.01 0.01 0.00 0.00 0.00 0.00
0.00 0.00 0.10 0.16 0.50 0.75 1.26 0.71 0.35 0.43 0.29 0.28 0.05 0.01 0.01 0.00 0.00 0.00 0.00 0.00 0.00 0.00 0.00 0.00 0.00 0.00 0.00 0.00 0.00 0.00 0.01 0.01 0.01 0.04 0.02 0.03 0.04 0.07 0.05 0.08 0.03 0.00 0.01 0.05 0.02 0.00 0.00 0.00 0.00
0.00 0.01 0.10 0.14 0.25 0.37 0.78 1.13 0.43 0.35 0.55 0.37 0.10 0.03 0.00 0.00 0.00 0.00 0.00 0.00 0.00 0.00 0.00 0.00 0.00 0.00 0.00 0.00 0.00 0.01 0.00 0.01 0.08 0.10 0.09 0.10 0.04 0.02 0.06 0.07 0.01 0.02 0.01 0.01 0.02 0.03 0.00 0.00 0.00
0.00 0.01 0.00 0.00 0.01 0.03 0.10 0.18 0.15 0.25 0.40 0.39 0.12 0.04 0.00 0.00 0.00 0.00 0.00 0.00 0.00 0.00 0.00 0.00 0.00 0.00 0.00 0.00 0.00 0.03 0.03 0.04 0.05 0.11 0.18 0.18 0.06 0.02 0.08 0.06 0.06 0.03 0.00 0.00 0.01 0.02 0.00 0.00 0.00
0.01 0.01 0.00 0.00 0.02 0.02 0.00 0.03 0.01 0.09 0.25 0.31 0.39 0.04 0.02 0.01 0.00 0.00 0.00 0.00 0.00 0.00 0.00 0.00 0.00 0.00 0.00 0.00 0.00 0.02 0.06 0.02 0.02 0.03 0.08 0.15 0.15 0.14 0.09 0.12 0.07 0.03 0.00 0.00 0.00 0.02 0.01 0.01 0.00
0.00 0.00 0.00 0.01 0.04 0.04 0.00 0.01 0.03 0.00 0.04 0.09 0.20 0.11 0.02 0.01 0.01 0.01 0.01 0.01 0.00 0.00 0.00 0.00 0.00 0.00 0.00 0.00 0.01 0.02 0.01 0.03 0.03 0.03 0.07 0.12 0.09 0.07 0.04 0.05 0.04 0.03 0.01 0.00 0.00 0.02 0.01 0.00 0.00
0.00 0.00 0.00 0.02 0.02 0.00 0.00 0.00 0.02 0.01 0.00 0.00 0.00 0.02 0.00 0.00 0.01 0.05 0.02 0.05 0.03 0.00 0.00 0.00 0.00 0.00 0.00 0.00 0.01 0.00 0.02 0.01 0.08 0.05 0.02 0.02 0.08 0.05 0.01 0.06 0.08 0.03 0.01 0.00 0.00 0.01 0.01 0.01 0.01
0.00 0.00 0.00 0.00 0.00 0.00 0.00 0.00 0.00 0.01 0.00 0.00 0.01 0.02 0.05 0.02 0.02 0.07 0.16 0.13 0.09 0.05 0.00 0.00 0.00 0.00 0.00 0.00 0.01 0.00 0.03 0.01 0.10 0.03 0.01 0.00 0.04 0.02 0.03 0.02 0.06 0.04 0.03 0.01 0.01 0.00 0.00 0.00 0.00
0.00 0.00 0.00 0.00 0.00 0.00 0.04 0.01 0.01 0.01 0.00 0.00 0.00 0.00 0.00 0.00 0.01 0.02 0.16 0.20 0.07 0.02 0.00 0.00 0.00 0.00 0.00 0.00 0.00 0.01 0.01 0.00 0.01 0.01 0.04 0.00 0.02 0.03 0.01 0.03 0.12 0.18 0.08 0.02 0.01 0.00 0.00 0.00 0.00
0.00 0.00 0.00 0.00 0.00 0.00 0.06 0.09 0.06 0.03 0.02 0.00 0.00 0.00 0.00 0.00 0.01 0.01 0.06 0.10 0.13 0.07 0.05 0.01 0.02 0.01 0.01 0.00 0.00 0.00 0.00 0.01 0.00 0.01 0.01 0.05 0.07 0.08 0.04 0.10 0.06 0.05 0.02 0.07 0.04 0.01 0.00 0.01 0.00
0.00 0.00 0.00 0.00 0.00 0.00 0.03 0.04 0.09 0.10 0.04 0.04 0.07 0.07 0.10 0.05 0.04 0.01 0.03 0.09 0.16 0.29 0.12 0.16 0.27 0.24 0.09 0.01 0.00 0.03 0.02 0.01 0.01 0.03 0.04 0.03 0.10 0.16 0.11 0.10 0.10 0.05 0.01 0.04 0.03 0.05 0.01 0.03 0.02
0.00 0.00 0.00 0.00 0.00 0.00 0.00 0.04 0.10 0.15 0.12 0.12 0.14 0.08 0.10 0.15 0.13 0.11 0.09 0.12 0.22 0.62 1.17 0.45 0.62 0.64 0.35 0.21 0.10 0.06 0.09 0.07 0.03 0.07 0.04 0.00 0.12 0.11 0.13 0.08 0.11 0.07 0.03 0.00 0.00 0.06 0.06 0.12 0.09